Year,Month,Day,Hour,Minute,Value (Times are PST for temperature in C)
2010,09,02,09,20,13.90
2010,09,02,09,21,13.90
2010,09,02,09,22,14.00
2010,09,02,09,23,14.00
2010,09,02,09,24,14.10
2010,09,02,09,25,14.10
2010,09,02,09,26,14.20
2010,09,02,09,27,14.20
2010,09,02,09,28,14.20
2010,09,02,09,29,14.20
2010,09,02,09,30,14.20
2010,09,02,09,31,14.30
2010,09,02,09,32,14.30
2010,09,02,09,33,14.40
2010,09,02,09,34,14.50
2010,09,02,09,35,14.50
2010,09,02,09,36,14.60
2010,09,02,09,37,14.60
2010,09,02,09,38,14.70
2010,09,02,09,39,14.80
2010,09,02,09,40,14.80
2010,09,02,09,41,15.00
2010,09,02,09,42,15.00
2010,09,02,09,43,15.00
2010,09,02,09,44,15.00
2010,09,02,09,45,15.00
2010,09,02,09,46,15.10
2010,09,02,09,47,15.20
2010,09,02,09,48,15.20
2010,09,02,09,49,15.20
2010,09,02,09,50,15.20
2010,09,02,09,51,15.20
2010,09,02,09,52,15.20
2010,09,02,09,53,15.20
2010,09,02,09,54,15.20
2010,09,02,09,55,15.20
2010,09,02,09,56,15.20
2010,09,02,09,57,15.20
2010,09,02,09,58,15.20
2010,09,02,09,59,15.30
2010,09,02,10,00,15.30
2010,09,02,10,01,15.30
2010,09,02,10,02,15.30
2010,09,02,10,03,15.40
2010,09,02,10,04,15.40
2010,09,02,10,05,15.40
2010,09,02,10,06,15.40
2010,09,02,10,07,15.40
2010,09,02,10,08,15.40
2010,09,02,10,09,15.40
2010,09,02,10,10,15.40
2010,09,02,10,11,15.50
2010,09,02,10,12,15.50
2010,09,02,10,13,15.60
2010,09,02,10,14,15.60
2010,09,02,10,15,15.70
2010,09,02,10,16,15.80
2010,09,02,10,17,15.80
2010,09,02,10,18,15.90
2010,09,02,10,19,16.00
2010,09,02,10,20,16.00
2010,09,02,10,21,16.10
2010,09,02,10,22,16.10
2010,09,02,10,23,16.10
2010,09,02,10,24,16.20
2010,09,02,10,25,16.20
2010,09,02,10,26,16.20
2010,09,02,10,27,16.20
2010,09,02,10,28,16.20
2010,09,02,10,29,16.20
2010,09,02,10,30,16.20
2010,09,02,10,31,16.30
2010,09,02,10,32,16.30
2010,09,02,10,33,16.30
2010,09,02,10,34,16.30
2010,09,02,10,35,16.30
2010,09,02,10,36,16.30
2010,09,02,10,37,16.40
2010,09,02,10,38,16.40
2010,09,02,10,39,16.40
2010,09,02,10,40,16.40
2010,09,02,10,41,16.50
2010,09,02,10,42,16.50
2010,09,02,10,43,16.50
2010,09,02,10,44,16.50
2010,09,02,10,45,16.50
2010,09,02,10,46,16.60
2010,09,02,10,47,16.60
2010,09,02,10,48,16.60
2010,09,02,10,49,16.60
2010,09,02,10,50,16.70
2010,09,02,10,51,16.80
2010,09,02,10,52,16.80
2010,09,02,10,53,16.80
2010,09,02,10,54,16.80
2010,09,02,10,55,16.80
2010,09,02,10,56,16.80
2010,09,02,10,57,16.90
2010,09,02,10,58,16.90
2010,09,02,10,59,16.90
2010,09,02,11,00,16.90
2010,09,02,11,01,17.00
2010,09,02,11,02,17.10
2010,09,02,11,03,17.20
2010,09,02,11,04,17.20
2010,09,02,11,05,17.30
2010,09,02,11,06,17.40
2010,09,02,11,07,17.60
2010,09,02,11,08,17.60
2010,09,02,11,09,17.60
2010,09,02,11,10,17.60
2010,09,02,11,11,17.60
2010,09,02,11,12,17.60
2010,09,02,11,13,17.60
2010,09,02,11,14,17.60
2010,09,02,11,15,17.60
2010,09,02,11,16,17.70
2010,09,02,11,17,17.70
2010,09,02,11,18,17.70
2010,09,02,11,19,17.70
2010,09,02,11,20,17.70
2010,09,02,11,21,17.70
2010,09,02,11,22,17.70
2010,09,02,11,23,17.80
2010,09,02,11,24,17.80
2010,09,02,11,25,17.80
2010,09,02,11,26,17.80
2010,09,02,11,27,17.80
2010,09,02,11,28,17.90
2010,09,02,11,29,17.90
2010,09,02,11,30,18.00
2010,09,02,11,31,18.00
2010,09,02,11,32,18.10
2010,09,02,11,33,18.20
2010,09,02,11,34,18.20
2010,09,02,11,35,18.20
2010,09,02,11,36,18.30
2010,09,02,11,37,18.20
2010,09,02,11,38,18.20
2010,09,02,11,39,18.20
2010,09,02,11,40,18.20
2010,09,02,11,41,18.20
2010,09,02,11,42,18.30
2010,09,02,11,43,18.30
2010,09,02,11,44,18.30
2010,09,02,11,45,18.30
2010,09,02,11,46,18.30
2010,09,02,11,47,18.30
2010,09,02,11,48,18.30
2010,09,02,11,49,18.30
2010,09,02,11,50,18.30
2010,09,02,11,51,18.40
2010,09,02,11,52,18.50
2010,09,02,11,53,18.50
2010,09,02,11,54,18.60
2010,09,02,11,55,18.60
2010,09,02,11,56,18.60
2010,09,02,11,57,18.60
2010,09,02,11,58,18.60
2010,09,02,11,59,18.70
2010,09,02,12,00,18.70
2010,09,02,12,01,18.70
2010,09,02,12,02,18.70
2010,09,02,12,03,18.70
2010,09,02,12,04,18.70
2010,09,02,12,05,18.70
2010,09,02,12,06,18.70
2010,09,02,12,07,18.60
2010,09,02,12,08,18.60
2010,09,02,12,09,18.50
2010,09,02,12,10,18.50
2010,09,02,12,11,18.50
2010,09,02,12,12,18.50
2010,09,02,12,13,18.60
2010,09,02,12,14,18.60
2010,09,02,12,15,18.70
2010,09,02,12,16,18.80
2010,09,02,12,17,18.80
2010,09,02,12,18,18.80
2010,09,02,12,19,18.90
2010,09,02,12,20,18.90
2010,09,02,12,21,19.00
2010,09,02,12,22,19.00
2010,09,02,12,23,19.00
2010,09,02,12,24,19.10
2010,09,02,12,25,19.10
2010,09,02,12,26,19.10
2010,09,02,12,27,19.10
2010,09,02,12,28,19.20
2010,09,02,12,29,19.20
2010,09,02,12,30,19.30
2010,09,02,12,31,19.30
2010,09,02,12,32,19.30
2010,09,02,12,33,19.30
2010,09,02,12,34,19.30
2010,09,02,12,35,19.30
2010,09,02,12,36,19.30
2010,09,02,12,37,19.30
2010,09,02,12,38,19.40
2010,09,02,12,39,19.40
2010,09,02,12,40,19.50
2010,09,02,12,41,19.60
2010,09,02,12,42,19.60
2010,09,02,12,43,19.70
2010,09,02,12,44,19.80
2010,09,02,12,45,19.80
2010,09,02,12,46,19.80
2010,09,02,12,47,19.80
2010,09,02,12,48,19.80
2010,09,02,12,49,19.80
2010,09,02,12,50,19.80
2010,09,02,12,51,19.70
2010,09,02,12,52,19.70
2010,09,02,12,53,19.70
2010,09,02,12,54,19.70
2010,09,02,12,55,19.70
2010,09,02,12,56,19.70
2010,09,02,12,57,19.70
2010,09,02,12,58,19.70
2010,09,02,12,59,19.80
2010,09,02,13,00,19.80
2010,09,02,13,01,19.80
2010,09,02,13,02,19.70
2010,09,02,13,03,19.80
2010,09,02,13,04,19.80
2010,09,02,13,05,19.90
2010,09,02,13,06,20.00
2010,09,02,13,07,20.00
2010,09,02,13,08,20.00
2010,09,02,13,09,19.90
2010,09,02,13,10,19.90
2010,09,02,13,11,19.90
2010,09,02,13,12,19.90
2010,09,02,13,13,19.90
2010,09,02,13,14,20.00
2010,09,02,13,15,20.00
2010,09,02,13,16,20.10
2010,09,02,13,17,20.20
2010,09,02,13,18,20.20
2010,09,02,13,19,20.20
2010,09,02,13,20,20.20
2010,09,02,13,21,20.20
2010,09,02,13,22,20.20
2010,09,02,13,23,20.20
2010,09,02,13,24,20.30
2010,09,02,13,25,20.30
2010,09,02,13,26,20.30
2010,09,02,13,27,20.40
2010,09,02,13,28,20.40
2010,09,02,13,29,20.40
2010,09,02,13,30,20.50
2010,09,02,13,31,20.50
2010,09,02,13,32,20.50
2010,09,02,13,33,20.60
2010,09,02,13,34,20.50
2010,09,02,13,35,20.50
2010,09,02,13,36,20.60
2010,09,02,13,37,20.50
2010,09,02,13,38,20.40
2010,09,02,13,39,20.40
2010,09,02,13,40,20.40
2010,09,02,13,41,20.30
2010,09,02,13,42,20.30
2010,09,02,13,43,20.30
2010,09,02,13,44,20.40
2010,09,02,13,45,20.40
2010,09,02,13,46,20.50
2010,09,02,13,47,20.50
2010,09,02,13,48,20.50
2010,09,02,13,49,20.60
2010,09,02,13,50,20.70
2010,09,02,13,51,20.80
2010,09,02,13,52,20.70
2010,09,02,13,53,20.70
2010,09,02,13,54,20.70
2010,09,02,13,55,20.70
2010,09,02,13,56,20.60
2010,09,02,13,57,20.50
2010,09,02,13,58,20.50
2010,09,02,13,59,20.50
2010,09,02,14,00,20.50
2010,09,02,14,01,20.50
2010,09,02,14,02,20.50
2010,09,02,14,03,20.60
2010,09,02,14,04,20.70
2010,09,02,14,05,20.80
2010,09,02,14,06,20.80
2010,09,02,14,07,20.80
2010,09,02,14,08,20.80
2010,09,02,14,09,20.70
2010,09,02,14,10,20.70
2010,09,02,14,11,20.80
2010,09,02,14,12,20.80
2010,09,02,14,13,20.80
2010,09,02,14,14,20.80
2010,09,02,14,15,20.80
2010,09,02,14,16,20.80
2010,09,02,14,17,20.80
2010,09,02,14,18,20.80
2010,09,02,14,19,20.80
2010,09,02,14,20,20.90
2010,09,02,14,21,20.90
2010,09,02,14,22,20.90
2010,09,02,14,23,20.90
2010,09,02,14,24,20.80
2010,09,02,14,25,20.90
2010,09,02,14,26,20.90
2010,09,02,14,27,20.90
2010,09,02,14,28,20.90
2010,09,02,14,29,20.90
2010,09,02,14,30,21.00
2010,09,02,14,31,21.10
2010,09,02,14,32,21.20
2010,09,02,14,33,21.20
2010,09,02,14,34,21.20
2010,09,02,14,35,21.30
2010,09,02,14,36,21.40
2010,09,02,14,37,21.40
2010,09,02,14,38,21.40
2010,09,02,14,39,21.40
2010,09,02,14,40,21.30
2010,09,02,14,41,21.30
2010,09,02,14,42,21.40
2010,09,02,14,43,21.50
2010,09,02,14,44,21.50
2010,09,02,14,45,21.50
2010,09,02,14,46,21.40
2010,09,02,14,47,21.40
2010,09,02,14,48,21.30
2010,09,02,14,49,21.30
2010,09,02,14,50,21.30
2010,09,02,14,51,21.20
2010,09,02,14,52,21.20
2010,09,02,14,53,21.20
2010,09,02,14,54,21.20
2010,09,02,14,55,21.20
2010,09,02,14,56,21.20
2010,09,02,14,57,21.20
2010,09,02,14,58,21.30
2010,09,02,14,59,21.30
2010,09,02,15,00,21.30
2010,09,02,15,01,21.30
2010,09,02,15,02,21.30
2010,09,02,15,03,21.40
2010,09,02,15,04,21.40
2010,09,02,15,05,21.40
2010,09,02,15,06,21.40
2010,09,02,15,07,21.40
2010,09,02,15,08,21.50
2010,09,02,15,09,21.50
2010,09,02,15,10,21.60
2010,09,02,15,11,21.60
2010,09,02,15,12,21.60
2010,09,02,15,13,21.50
2010,09,02,15,14,21.40
2010,09,02,15,15,21.40
2010,09,02,15,16,21.40
2010,09,02,15,17,21.40
2010,09,02,15,18,21.40
2010,09,02,15,19,21.40
2010,09,02,15,20,21.40
2010,09,02,15,21,21.50
2010,09,02,15,22,21.50
2010,09,02,15,23,21.50
2010,09,02,15,24,21.40
2010,09,02,15,25,21.40
2010,09,02,15,26,21.40
2010,09,02,15,27,21.40
2010,09,02,15,28,21.30
2010,09,02,15,29,21.30
2010,09,02,15,30,21.30
2010,09,02,15,31,21.30
2010,09,02,15,32,21.40
2010,09,02,15,33,21.40
2010,09,02,15,34,21.50
2010,09,02,15,35,21.50
2010,09,02,15,36,21.60
2010,09,02,15,37,21.60
2010,09,02,15,38,21.70
2010,09,02,15,39,21.80
2010,09,02,15,40,21.80
2010,09,02,15,41,21.80
2010,09,02,15,42,21.80
2010,09,02,15,43,21.80
2010,09,02,15,44,21.80
2010,09,02,15,45,21.80
2010,09,02,15,46,21.80
2010,09,02,15,47,21.80
2010,09,02,15,48,21.80
2010,09,02,15,49,21.80
2010,09,02,15,50,21.80
2010,09,02,15,51,21.80
2010,09,02,15,52,21.80
2010,09,02,15,53,21.80
2010,09,02,15,54,21.80
2010,09,02,15,55,21.80
2010,09,02,15,56,21.80
2010,09,02,15,57,21.80
2010,09,02,15,58,21.80
2010,09,02,15,59,21.80
2010,09,02,16,00,21.80
2010,09,02,16,01,21.90
2010,09,02,16,02,21.90
2010,09,02,16,03,21.90
2010,09,02,16,04,22.00
2010,09,02,16,05,22.00
2010,09,02,16,06,22.10
2010,09,02,16,07,22.10
2010,09,02,16,08,22.10
2010,09,02,16,09,22.10
2010,09,02,16,10,22.10
2010,09,02,16,11,22.10
2010,09,02,16,12,22.10
2010,09,02,16,13,22.10
2010,09,02,16,14,22.10
2010,09,02,16,15,22.00
2010,09,02,16,16,22.00
2010,09,02,16,17,22.00
2010,09,02,16,18,22.00
2010,09,02,16,19,22.00
2010,09,02,16,20,22.00
2010,09,02,16,21,22.00
2010,09,02,16,22,22.00
2010,09,02,16,23,22.00
2010,09,02,16,24,22.10
2010,09,02,16,25,22.10
2010,09,02,16,26,22.10
2010,09,02,16,27,22.10
2010,09,02,16,28,22.10
2010,09,02,16,29,22.20
2010,09,02,16,30,22.20
2010,09,02,16,31,22.20
2010,09,02,16,32,22.20
2010,09,02,16,33,22.20
2010,09,02,16,34,22.10
2010,09,02,16,35,22.10
2010,09,02,16,36,22.00
2010,09,02,16,37,21.90
2010,09,02,16,38,21.80
2010,09,02,16,39,21.80
2010,09,02,16,40,21.70
2010,09,02,16,41,21.70
2010,09,02,16,42,21.60
2010,09,02,16,43,21.60
2010,09,02,16,44,21.60
2010,09,02,16,45,21.50
2010,09,02,16,46,21.40
2010,09,02,16,47,21.40
2010,09,02,16,48,21.40
2010,09,02,16,49,21.40
2010,09,02,16,50,21.40
2010,09,02,16,51,21.40
2010,09,02,16,52,21.40
2010,09,02,16,53,21.30
2010,09,02,16,54,21.30
2010,09,02,16,55,21.30
2010,09,02,16,56,21.30
2010,09,02,16,57,21.30
2010,09,02,16,58,21.40
2010,09,02,16,59,21.40
2010,09,02,17,00,21.40
2010,09,02,17,01,21.50
2010,09,02,17,02,21.60
2010,09,02,17,03,21.60
2010,09,02,17,04,21.70
2010,09,02,17,05,21.80
2010,09,02,17,06,21.80
2010,09,02,17,07,21.80
2010,09,02,17,08,21.80
2010,09,02,17,09,21.80
2010,09,02,17,10,21.70
2010,09,02,17,11,21.70
2010,09,02,17,12,21.60
2010,09,02,17,13,21.60
2010,09,02,17,14,21.60
2010,09,02,17,15,21.60
2010,09,02,17,16,21.60
2010,09,02,17,17,21.50
2010,09,02,17,18,21.50
2010,09,02,17,19,21.40
2010,09,02,17,20,21.40
2010,09,02,17,21,21.30
2010,09,02,17,22,21.30
2010,09,02,17,23,21.30
2010,09,02,17,24,21.30
2010,09,02,17,25,21.30
2010,09,02,17,26,21.30
2010,09,02,17,27,21.30
2010,09,02,17,28,21.40
2010,09,02,17,29,21.40
2010,09,02,17,30,21.50
2010,09,02,17,31,21.50
2010,09,02,17,32,21.60
2010,09,02,17,33,21.70
2010,09,02,17,34,21.70
2010,09,02,17,35,21.80
2010,09,02,17,36,21.80
2010,09,02,17,37,21.90
2010,09,02,17,38,22.10
2010,09,02,17,39,22.20
2010,09,02,17,40,22.30
2010,09,02,17,41,22.30
2010,09,02,17,42,22.40
2010,09,02,17,43,22.40
2010,09,02,17,44,22.40
2010,09,02,17,45,22.30
2010,09,02,17,46,22.20
2010,09,02,17,47,22.10
2010,09,02,17,48,21.90
2010,09,02,17,49,21.80
2010,09,02,17,50,21.80
2010,09,02,17,51,21.70
2010,09,02,17,52,21.60
2010,09,02,17,53,21.50
2010,09,02,17,54,21.40
2010,09,02,17,55,21.40
2010,09,02,17,56,21.40
2010,09,02,17,57,21.40
2010,09,02,17,58,21.40
2010,09,02,17,59,21.40
2010,09,02,18,00,21.40
2010,09,02,18,01,21.30
2010,09,02,18,02,21.30
2010,09,02,18,03,21.30
2010,09,02,18,04,21.30
2010,09,02,18,05,21.20
2010,09,02,18,06,21.20
2010,09,02,18,07,21.20
2010,09,02,18,08,21.10
2010,09,02,18,09,21.10
2010,09,02,18,10,21.10
2010,09,02,18,11,21.10
2010,09,02,18,12,21.10
2010,09,02,18,13,21.00
2010,09,02,18,14,21.00
2010,09,02,18,15,21.10
2010,09,02,18,16,21.10
2010,09,02,18,17,21.00
2010,09,02,18,18,21.00
2010,09,02,18,19,21.00
2010,09,02,18,20,21.10
2010,09,02,18,21,21.10
2010,09,02,18,22,21.10
2010,09,02,18,23,21.10
2010,09,02,18,24,21.10
2010,09,02,18,25,21.10
2010,09,02,18,26,21.10
2010,09,02,18,27,21.20
2010,09,02,18,28,21.20
2010,09,02,18,29,21.20
2010,09,02,18,30,21.20
2010,09,02,18,31,21.20
2010,09,02,18,32,21.20
2010,09,02,18,33,21.20
2010,09,02,18,34,21.20
2010,09,02,18,35,21.20
2010,09,02,18,36,21.20
2010,09,02,18,37,21.20
2010,09,02,18,38,21.10
2010,09,02,18,39,21.00
2010,09,02,18,40,21.00
2010,09,02,18,41,20.90
2010,09,02,18,42,20.80
2010,09,02,18,43,20.80
2010,09,02,18,44,20.70
2010,09,02,18,45,20.70
2010,09,02,18,46,20.70
2010,09,02,18,47,20.60
2010,09,02,18,48,20.60
2010,09,02,18,49,20.50
2010,09,02,18,50,20.50
2010,09,02,18,51,20.50
2010,09,02,18,52,20.40
2010,09,02,18,53,20.40
2010,09,02,18,54,20.40
2010,09,02,18,55,20.30
2010,09,02,18,56,20.30
2010,09,02,18,57,20.30
2010,09,02,18,58,20.20
2010,09,02,18,59,20.20
2010,09,02,19,00,20.20
2010,09,02,19,01,20.20
2010,09,02,19,02,20.20
2010,09,02,19,03,20.10
2010,09,02,19,04,20.10
2010,09,02,19,05,20.10
2010,09,02,19,06,20.10
2010,09,02,19,07,20.10
2010,09,02,19,08,20.10
2010,09,02,19,09,20.00
2010,09,02,19,10,20.00
2010,09,02,19,11,20.00
2010,09,02,19,12,19.90
2010,09,02,19,13,19.90
2010,09,02,19,14,19.90
2010,09,02,19,15,19.80
2010,09,02,19,16,19.80
2010,09,02,19,17,19.80
2010,09,02,19,18,19.80
2010,09,02,19,19,19.70
2010,09,02,19,20,19.70
2010,09,02,19,21,19.70
2010,09,02,19,22,19.70
2010,09,02,19,23,19.60
2010,09,02,19,24,19.60
2010,09,02,19,25,19.50
2010,09,02,19,26,19.40
2010,09,02,19,27,19.40
2010,09,02,19,28,19.30
2010,09,02,19,29,19.30
2010,09,02,19,30,19.20
2010,09,02,19,31,19.20
2010,09,02,19,32,19.10
2010,09,02,19,33,19.10
2010,09,02,19,34,19.00
2010,09,02,19,35,19.00
2010,09,02,19,36,18.90
2010,09,02,19,37,18.90
2010,09,02,19,38,18.80
2010,09,02,19,39,18.80
2010,09,02,19,40,18.70
2010,09,02,19,41,18.60
2010,09,02,19,42,18.60
2010,09,02,19,43,18.50
2010,09,02,19,44,18.50
2010,09,02,19,45,18.40
2010,09,02,19,46,18.30
2010,09,02,19,47,18.30
2010,09,02,19,48,18.30
2010,09,02,19,49,18.30
2010,09,02,19,50,18.30
2010,09,02,19,51,18.30
2010,09,02,19,52,18.30
2010,09,02,19,53,18.30
2010,09,02,19,54,18.30
2010,09,02,19,55,18.30
2010,09,02,19,56,18.30
